STARLINK-11289 [DTC]

Last updated on Fri Oct 04 2024 00:02:04 GMT+0000 (Coordinated Universal Time)

1 60991U 24158B 24277.47479456 -.00000390 00000+0 16224-5 0 9995 2 60991 53.1567 336.4182 0001961 43.6970 316.4206 15.76716796 5560
UTC large
Height (km)
Speed (km/s)
/
Latitude / Longitude
Inclination (degrees)
Orbital Period (minutes)
Azimuth
Elevation
Range (km)
Doppler Factor

Next 0 passes for location: London (51.5072 / 0.1276)

Sorry there are no passes over London.